DW2070 Weather Reports


Display with metric or nautical units.
time (UTC)temp
F
wind
direction
speed
MPH
gust
MPH
rain 1hr
in
rain 24hr
in
rain mn
in
humidity
%
barometer
mb
20210410151025 50 70 1.0 2.0 0.00 0.00 0.00 92 1013.8
20210410150318 48 70 1.0 2.0 0.00 0.00 0.00 91 1013.6
20210410145457 48 70 1.0 3.0 0.00 0.00 0.00 91 1013.7
20210410144054 47 70 0.0 2.0 0.00 0.00 0.00 91 1013.5
20210410143024 46 70 1.0 3.0 0.00 0.00 0.00 90 1013.4
20210410142158 46 69 1.0 3.0 0.00 0.00 0.00 90 1013.3
20210410141007 46 69 1.0 4.0 0.00 0.00 0.00 90 1013.3
20210410140300 46 69 1.0 2.0 0.00 0.00 0.00 89 1013.0
20210410135431 46 69 1.0 3.0 0.00 0.00 0.00 89 1013.1
20210410134025 46 69 1.0 2.0 0.00 0.00 0.00 88 1012.9
20210410133023 46 69 0.0 2.0 0.00 0.00 0.00 88 1013.0
20210410132259 46 69 0.0 2.0 0.00 0.00 0.00 89 1013.0
20210410131031 47 70 0.0 2.0 0.00 0.00 0.00 88 1012.9
20210410130039 47 70 1.0 3.0 0.00 0.00 0.00 89 1012.9
20210410125709 47 0 0.0 2.0 0.00 0.00 0.00 89 1012.8
20210410124022 47 70 1.0 2.0 0.00 0.00 0.00 89 1012.9
20210410123556 48 65 0.0 4.0 0.00 0.00 0.00 89 1012.7
20210410122031 48 58 2.0 2.0 0.00 0.00 0.00 89 1012.7
20210410121021 48 58 1.0 5.0 0.00 0.00 0.00 89 1012.7
20210410120216 48 59 2.0 3.0 0.00 0.00 0.00 89 1012.6
20210410115347 48 59 2.0 5.0 0.00 0.00 0.00 89 1012.7
20210410114022 48 70 3.0 5.0 0.00 0.00 0.00 90 1012.8
20210410113023 48 74 2.0 5.0 0.00 0.00 0.00 89 1012.9
20210410112418 48 74 2.0 6.0 0.00 0.00 0.00 89 1012.9
20210410111020 48 63 2.0 3.0 0.00 0.00 0.00 89 1013.0
20210410110026 48 65 2.0 5.0 0.00 0.00 0.00 88 1013.1
20210410105113 48 73 3.0 5.0 0.00 0.00 0.00 88 1013.2
20210410104023 48 72 3.0 5.0 0.00 0.00 0.00 88 1013.3
20210410103023 48 78 3.0 5.0 0.00 0.00 0.00 88 1013.4
20210410102318 48 71 2.0 6.0 0.00 0.00 0.00 88 1013.6
20210410101020 48 75 1.0 3.0 0.00 0.00 0.00 88 1013.7
20210410100038 48 75 1.0 5.0 0.00 0.00 0.00 88 1014.0
20210410095434 48 74 1.0 3.0 0.00 0.00 0.00 87 1013.9
20210410094016 49 70 1.0 3.0 0.00 0.00 0.00 87 1014.0
20210410093034 49 66 2.0 3.0 0.00 0.00 0.00 87 1014.0
20210410092134 49 63 1.0 4.0 0.00 0.00 0.00 86 1014.1
20210410091029 49 56 1.0 3.0 0.00 0.00 0.00 86 1014.2
20210410090025 49 64 1.0 4.0 0.00 0.00 0.00 85 1014.2
20210410085128 49 150 1.0 3.0 0.00 0.00 0.00 85 1014.1
20210410084021 49 181 1.0 3.0 0.00 0.00 0.00 85 1014.1
20210410083022 50 235 1.0 2.0 0.00 0.00 0.00 85 1014.2
20210410082047 50 235 1.0 2.0 0.00 0.00 0.00 85 1014.1
20210410081027 50 235 1.0 3.0 0.00 0.00 0.00 84 1014.2
20210410080050 50 235 0.0 3.0 0.00 0.00 0.00 84 1014.2
20210410075308 50 235 0.0 1.0 0.00 0.00 0.00 83 1014.2
20210410074018 51 235 1.0 2.0 0.00 0.00 0.00 83 1014.3
20210410073019 51 235 1.0 2.0 0.00 0.00 0.00 83 1014.3
20210410072040 51 235 1.0 3.0 0.00 0.00 0.00 83 1014.3
20210410071019 52 235 1.0 2.0 0.00 0.00 0.00 83 1014.4
20210410070026 52 235 0.0 2.0 0.00 0.00 0.00 83 1014.3
20210410065239 52 235 1.0 2.0 0.00 0.00 0.00 83 1014.4
20210410064043 52 235 1.0 3.0 0.00 0.00 0.00 82 1014.3
20210410063252 53 235 0.0 2.0 0.00 0.00 0.00 82 1014.2
20210410062226 53 0 0.0 1.0 0.00 0.00 0.00 81 1014.3
20210410061020 53 0 0.0 0.0 0.00 0.00 0.00 81 1014.2
20210410060151 53 0 0.0 0.0 0.00 0.00 0.00 81 1014.1
20210410055516 54 0 0.0 2.0 0.00 0.00 0.00 81 1014.1
20210410054018 54 0 0.0 2.0 0.00 0.00 0.00 80 1013.9
20210410053041 54 0 0.0 2.0 0.00 0.00 0.00 80 1014.0
20210410052217 54 0 0.0 2.0 0.00 0.00 0.00 80 1014.0
20210410051030 55 0 0.0 2.0 0.00 0.00 0.00 80 1013.8
20210410050113 55 235 1.0 2.0 0.00 0.00 0.00 80 1013.8
20210410045254 55 237 1.0 3.0 0.00 0.00 0.00 79 1013.9
20210410044019 56 244 1.0 3.0 0.00 0.00 0.00 78 1014.0
20210410043017 56 244 1.0 3.0 0.00 0.00 0.00 78 1014.0
20210410042227 56 244 1.0 2.0 0.00 0.00 0.00 77 1013.9
20210410041019 56 244 1.0 3.0 0.00 0.00 0.00 77 1013.8
20210410040111 57 244 1.0 3.0 0.00 0.00 0.00 76 1013.8
20210410035205 57 214 1.0 3.0 0.00 0.00 0.00 75 1013.9
20210410034018 58 223 1.0 3.0 0.00 0.00 0.00 75 1013.8
20210410033051 58 213 1.0 4.0 0.00 0.00 0.00 73 1013.7
20210410032402 59 216 2.0 6.0 0.00 0.00 0.00 72 1013.7
20210410031118 59 198 1.0 5.0 0.00 0.00 0.00 71 1013.7
20210410030232 60 241 2.0 4.0 0.00 0.00 0.00 70 1013.6
20210410025305 61 230 3.0 6.0 0.00 0.00 0.00 68 1013.5
20210410024019 61 235 3.0 6.0 0.00 0.00 0.00 67 1013.5
20210410023028 62 242 3.0 7.0 0.00 0.00 0.00 65 1013.4
20210410022130 63 244 3.0 7.0 0.00 0.00 0.00 64 1013.4
20210410021021 64 255 3.0 6.0 0.00 0.00 0.00 62 1013.2
20210410020023 65 255 3.0 6.0 0.00 0.00 0.00 61 1013.1
20210410015126 66 233 3.0 6.0 0.00 0.00 0.00 60 1013.0
20210410014024 67 214 3.0 7.0 0.00 0.00 0.00 59 1013.0
20210410013020 68 223 3.0 7.0 0.00 0.00 0.00 57 1013.0
20210410012154 68 218 4.0 7.0 0.00 0.00 0.00 56 1012.9
20210410011019 69 246 4.0 10.0 0.00 0.00 0.00 55 1013.0
20210410010022 70 234 3.0 8.0 0.00 0.00 0.00 54 1013.0
20210410005357 71 239 3.0 9.0 0.00 0.00 0.00 52 1013.0
20210410004017 72 249 4.0 8.0 0.00 0.00 0.00 50 1013.1
20210410003052 73 246 3.0 8.0 0.00 0.00 0.00 48 1012.9
20210410002224 74 248 4.0 9.0 0.00 0.00 0.00 46 1012.9
20210410001022 73 247 4.0 9.0 0.00 0.00 0.00 44 1012.8
20210409235430 73 249 5.0 11.0 0.00 0.00 0.00 45 1013.2
20210409234014 74 240 5.0 11.0 0.00 0.00 0.00 45 1013.2
20210409233019 74 230 5.0 10.0 0.00 0.00 0.00 42 1013.4
20210409232158 75 241 4.0 11.0 0.00 0.00 0.00 42 1013.3
20210409231023 75 250 5.0 11.0 0.00 0.00 0.00 45 1013.4
20210409230325 74 241 5.0 11.0 0.00 0.00 0.00 44 1013.4
20210409225141 74 240 5.0 12.0 0.00 0.00 0.00 45 1013.6
20210409224032 74 242 4.0 12.0 0.00 0.00 0.00 45 1013.8
20210409223026 74 247 5.0 10.0 0.00 0.00 0.00 46 1013.8
20210409222110 74 235 4.0 11.0 0.00 0.00 0.00 44 1014.0
20210409221014 73 239 4.0 9.0 0.00 0.00 0.00 46 1014.2
20210409220022 72 239 5.0 11.0 0.00 0.00 0.00 49 1014.4
20210409215155 71 235 6.0 13.0 0.00 0.00 0.00 50 1014.5
20210409214011 72 244 5.0 12.0 0.00 0.00 0.00 51 1014.8
20210409213020 71 238 6.0 12.0 0.00 0.00 0.00 54 1015.0
20210409212131 70 241 6.0 13.0 0.00 0.00 0.00 56 1014.9
20210409211012 71 237 6.0 16.0 0.00 0.00 0.00 53 1015.0
20210409210025 72 254 6.0 13.0 0.00 0.00 0.00 52 1015.0
20210409205234 72 256 7.0 16.0 0.00 0.00 0.00 52 1015.0
20210409204019 72 235 6.0 13.0 0.00 0.00 0.00 49 1015.0
20210409203018 73 236 7.0 14.0 0.00 0.00 0.00 51 1015.0
20210409202112 73 243 7.0 15.0 0.00 0.00 0.00 50 1015.1
20210409201026 74 253 6.0 13.0 0.00 0.00 0.00 50 1015.1
20210409200113 74 243 5.0 12.0 0.00 0.00 0.00 51 1015.0
20210409195308 75 245 4.0 11.0 0.00 0.00 0.00 46 1015.0
20210409194021 75 242 4.0 10.0 0.00 0.00 0.00 44 1015.1
20210409193027 74 247 4.0 15.0 0.00 0.00 0.00 45 1015.3
20210409192111 73 243 3.0 8.0 0.00 0.00 0.00 46 1015.4
20210409191019 73 245 3.0 9.0 0.00 0.00 0.00 46 1015.4
20210409190126 72 239 3.0 8.0 0.00 0.00 0.00 48 1015.5
20210409185432 72 248 3.0 8.0 0.00 0.00 0.00 48 1015.6
20210409184027 71 234 3.0 6.0 0.00 0.00 0.00 50 1015.9
20210409183054 70 244 4.0 9.0 0.00 0.00 0.00 51 1016.3
20210409182335 70 274 3.0 8.0 0.00 0.00 0.00 52 1016.5
20210409181023 69 268 4.0 10.0 0.00 0.00 0.00 53 1016.7
20210409180328 70 276 4.0 9.0 0.00 0.00 0.00 54 1016.6
20210409175342 69 258 4.0 11.0 0.00 0.00 0.00 55 1016.6
20210409174020 68 241 3.0 8.0 0.00 0.00 0.00 57 1016.6
20210409173032 67 225 4.0 9.0 0.00 0.00 0.00 59 1016.6
20210409172210 67 261 4.0 10.0 0.00 0.00 0.00 58 1016.8
20210409171023 66 234 5.0 8.0 0.00 0.00 0.00 61 1016.7
20210409170112 66 244 3.0 9.0 0.00 0.00 0.00 61 1016.5
20210409165437 64 251 3.0 7.0 0.00 0.00 0.00 62 1016.3
20210409164022 65 269 1.0 6.0 0.00 0.00 0.00 62 1016.2
20210409163019 64 246 1.0 5.0 0.00 0.00 0.00 64 1016.1
20210409162034 63 220 1.0 4.0 0.00 0.00 0.00 64 1016.0
20210409161019 62 244 2.0 4.0 0.00 0.00 0.00 67 1015.9
20210409160124 61 312 1.0 4.0 0.00 0.00 0.00 68 1015.8